Current weather by "City, St" or "zip code"  
 

Current Conditions: Branson, MO

Overcast


45.0 F

Last Updated on Oct 24 2020, 7:45 pm CDT
Humidity: 81%
Wind Speed: E 5.8 mph
Barometer 30.06 in
Dewpoint: 39.2 F
Visibility: 10.00 mi
Precip: --
Heat Index: NA
Wind Chill: 42 F
Current conditions at:

Branson, MO (KBBG)

Lat: 36.5321 Lon: 93.2005

Local Radar Image active severe weather and emergency alerts image image weather storm and storm spotter reports image weather observation monitoring service image
Local
Radar
Active
Alerts
Storm Reports Obs
Monitoring

Sign-up For Email & Text Message Weather Alert Notification Services



Advertise Here

Observation History for Branson, MO


Time Wind
(mph)
Vis
(mi)
Weather Precip (in) Temperature (F) Relative
Humidity
Wind
Chill
(F)
Heat
Index
(F)
Pressure
Air Dwpt altimeter
(in)
sea level
(mb)
Rmks
7:45 pm CDT E 5.8 10.00 Overcast -- 45.0 39.2 81% 42 NA 30.06 M
6:45 pm CDT E 6.9 10.00 Overcast -- 45.0 39.2 81% 41 NA 30.05 M
5:45 pm CDT E 6.9 10.00 Overcast -- 45.0 39.2 81% 41 NA 30.05 M
4:45 pm CDT E 5.8 10.00 Overcast -- 45.0 39.2 81% 42 NA 30.05 M
3:45 pm CDT E 5.8 10.00 Overcast -- 45.0 37.4 76% 42 NA 30.06 M
2:47 pm CDT SE 6.9 10.00 Overcast -- 45.0 37.4 76% 41 NA 30.07 M
1:45 pm CDT E 6.9 10.00 Overcast -- 45.0 37.4 76% 41 NA 30.12 M
12:45 pm CDT E 6.9 10.00 Overcast -- 43.0 37.4 81% 39 NA 30.16 M
11:50 am CDT E 5.8 10.00 Overcast -- 41.0 35.6 81% 37 NA 30.17 M
10:45 am CDT E 5.8 10.00 Overcast -- 41.0 35.6 81% 37 NA 30.19 M
9:45 am CDT E 5.8 10.00 Overcast -- 41.0 33.8 76% 37 NA 30.19 M
8:45 am CDT E 6.9 10.00 Overcast -- 41.0 33.8 76% 36 NA 30.20 M
6:45 am CDT NE 4.6 10.00 Overcast -- 39.0 35.6 87% 36 NA 30.21 M
5:55 am CDT NE 3.5 10.00 Overcast -- 39.0 35.6 87% NA NA 30.21 M
4:55 am CDT N 5.8 10.00 Overcast -- 39.0 35.6 87% 35 NA 30.21 M
3:55 am CDT N 5.8 10.00 Overcast -- 41.0 35.6 81% 37 NA 30.22 M
2:55 am CDT N 6.9 10.00 Overcast -- 41.0 35.6 81% 36 NA 30.24 M
2:35 am CDT N 6.9 10.00 Overcast -- 41.0 35.6 81% 36 NA 30.25 M
1:55 am CDT N 5.8 10.00 Overcast -- 41.0 33.8 76% 37 NA 30.25 M
12:55 am CDT N 5.8 10.00 Overcast -- 41.0 33.8 76% 37 NA 30.26 M
11:55 pm CDT N 8.1 10.00 Overcast -- 41.0 35.6 81% 36 NA 30.27 M
11:35 pm CDT N 9.2 10.00 Overcast -- 41.0 35.6 81% 35 NA 30.27 M
10:55 pm CDT N 9.2 10.00 Overcast -- 41.0 35.6 81% 35 NA 30.28 M
10:35 pm CDT N 8.1 10.00 Overcast -- 41.0 35.6 81% 36 NA 30.28 M

Regional Weather Observation


Harrison, Boone County Airport, AR (KHRO)

Overcast
45.0 F

Springfield, Springfield Regional Airport, MO (KSGF)

Overcast
45.0 F

Monett, MO (KHFJ)

Overcast
43.0 F

Rogers - Rogers Executive Airport - Carter Field, AR (KROG)

Overcast
44.0 F

Flippin, Marion County Regional Airport, AR (KFLP)

Overcast
48.0 F

Baxter County Airport, AR (KBPK)

Overcast
47.0 F